星链-30077 (STARLINK-30077 )

导读

STARLINK-30077是美国SpaceX星链星座的卫星,于2023年7月28日发射入轨,属于星链第二代组网卫星,主要为全球提供高速低延迟互联网服务,尤其覆盖偏远地区与移动场景,是星链大规模商业组网进程中的组成单元,依托近地轨道部署,实现全球网络互联覆盖。

Basic Information
目录编号:
57460
目录名称:
STARLINK-30077
国际标识:
2023-107D
轨道中心:
EARTH
卫星名称:
星链-30077
卫星全名:
星链-30077 (STARLINK-30077 )
卫星状态:
在轨 (已飞行1056 天)
发射日期:
2023-07-28 UTC
国别 :
美国 (US)
星等 :
--
Orbit Information
数据来源 国际轨道数据 AOE轨道数据
星历时间 2026-06-16T23:13:40+0800
2天前
查看轨道信息
2026-06-17T00:00:00+0800
1天前
查看轨道信息
半长轴 6861.202km 6861.203km
偏心率 0.0001031 0.000052
轨道倾角 43.004° 43.004°
近地点辐角 276.456° 148.297°
升交点赤经 136.963° 136.785°
平近点角 83.618° 28.943°
近地点 482.357km 482.709km
远地点 483.773km 483.423km
周期 94.267分钟 94.267分钟
每日圈数 15.275747 15.275744
Detailed Information
固有亮度:
5
最大亮度:
0.3
卫星平台:
Starlink v2.0 mini
覆盖范围:
全球
运营商:
太空探索技术公司
运营商所在国:
美国
制造商(研发单位):
太空探索技术公司
制造商所在国:
美国
使用方式:
暂无
Satellite Introduction
星链(Starlink)计划是由太空探索技术公司(SpaceX)提出的一个巨型低轨卫星互联网星座项目,计划在2019年至2024年间在太空搭建由约1.2万颗卫星组成的“星链”网络,其中1584颗将部署在地球上空550千米处的近地轨道,并从2020年开始工作。该卫星仍在工作。
2D Orbit Map
3D Orbit Map
Orbit Altitude Analysis Chart
Orbit Inclination Analysis Chart
Orbit Comprehensive Analysis Chart
View Comprehensive Chart